Regional Weather Roundup
Issued by NWS Cleveland, OH

Home | Current Version | Previous Version | Text Only | Print | Product List | Glossary On
Versions: 1 2 3 4 5 6 7 8 9 10 11 12 13 14 15 16 17 18 19 20 21 22 23 24 25 26 27 28 29 30 31 32 33 34 35 36 37 38 39 40 41 42 43 44 45 46 47 48 49 50
000
ASUS41 KCLE 070012
RWRCLE
OHIO REGIONAL WEATHER ROUNDUP
NATIONAL WEATHER SERVICE WILMINGTON, OH
800 PM EDT FRI MAY 06 2016

NOTE: "FAIR" INDICATES FEW OR NO CLOUDS BELOW 12,000 FEET WITH NO
SIGNIFICANT WEATHER AND/OR OBSTRUCTIONS TO VISIBILITY.

OHZ001>008-015>018-024>027-034-035-043-044-070100-
   NORTHWEST OHIO

CITY           SKY/WX    TMP DP  RH WIND       PRES   REMARKS
DEFIANCE       FAIR      70  38  31 CALM      29.85S
FINDLAY        FAIR      67  40  37 W7        29.84S
TOLEDO EXPRESS FAIR      69  40  34 NW7       29.83S
TOLEDO EXEC    FAIR      67  42  40 NW6       29.84S
LIMA           FAIR      66  40  38 NW6       29.86S
$$

OHZ009>014-019>023-028>033-038-089-070100-
   NORTHEAST OHIO

CITY           SKY/WX    TMP DP  RH WIND       PRES   REMARKS
CLE-HOPKINS    FAIR      65  37  35 NW8       29.86R
CLE-LAKEFRONT  FAIR      58  43  57 W5        29.84S
CUY CO. ARPT   PTCLDY    63  43  48 W9        29.84F
LORAIN-ELYRIA  FAIR      63  37  38 NW8       29.85S
ASHTABULA      FAIR      62  36  37 N5        29.83S
AKRON-CANTON   FAIR      62  36  37 N13       29.83R
WOOSTER        FAIR      60  42  51 N8        29.85R
MANSFIELD      FAIR      61  39  44 NW7       29.86S
YOUNGSTOWN     MOCLDY    62  34  35 N15G23    29.81S
$$

OHZ042-051>053-060>062-070>072-077>081-070100-
  SOUTHWEST OHIO

CITY           SKY/WX    TMP DP  RH WIND       PRES   REMARKS
CINC-COVINGTON FAIR      66  38  35 NW10      29.88S
CINC-LUNKEN    FAIR      67  38  34 NW8       29.88S
HAMILTON       FAIR      67  40  37 NW10      29.88S
DAYTON         FAIR      64  40  41 N9        29.88S
WRIGHT-PAT AFB PTCLDY    67  38  34 NW6       29.86S
DAYTON GENERAL FAIR      67  37  33 NW9       29.87R
WILMINGTON     FAIR      65  41  41 N9        29.86S
$$

OHZ036-037-039>041-045>050-054>059-063>069-073>076-082>088-070100-
  CENTRAL AND SOUTHEAST OHIO

CITY           SKY/WX    TMP DP  RH WIND       PRES   REMARKS
COLUMBUS       FAIR      65  38  36 N13       29.85R
OSU AIRPORT    FAIR      65  40  39 NW10      29.85R
BOLTON FIELD   FAIR      65  41  41 N13       29.86R
RICKENBACK AFB FAIR      65  38  37 N12       29.85R
NEWARK         FAIR      65  37  35 NW10      29.84R
MARION         FAIR      62  45  53 NE6       29.86S
LANCASTER      FAIR      63  40  42 N9        29.85R
ZANESVILLE     FAIR      66  36  32 N9        29.83R
NEW PHILLY     FAIR      65  35  33 N12       29.82R
$$




USA.gov is the U.S. government's official web portal to all federal, state and local government web resources and services.